Wind_Speed
103 109 111 110 110 110 109 110 110 110 110 109 109 110 110 110 110 109 109 107 106 103 100 102 103 102 102 101 100 99 99 99 99 97 95 95 95 95 95 95 95 95 96 97 99 99 100 100 100 99 96 91 79 68
102 100 102 106 109 111 111 111 111 112 113 113 113 113 112 112 110 109 111 112 112 109 106 107 105 110 107 105 103 103 105 106 103 103 101 100 99 98 100 99 99 100 101 102 103 104 103 102 102 100 91 77 67 67
106 106 103 101 100 100 100 100 98 99 100 106 112 114 114 114 113 112 112 111 112 109 108 109 110 111 109 110 108 106 110 110 107 105 102 103 102 99 98 98 95 93 93 91 92 93 90 88 83 77 70 69 64 59
105 107 106 105 104 102 101 100 99 98 96 93 91 93 100 105 109 108 106 105 103 105 104 105 109 109 107 105 102 102 104 102 99 96 94 92 90 91 88 84 79 82 79 77 74 76 74 75 72 72 68 62 57 53
95 98 100 102 103 104 104 104 103 103 101 99 98 96 95 93 93 94 95 96 98 99 96 98 100 100 97 97 98 96 94 93 92 89 86 86 87 87 80 78 81 83 75 73 73 75 74 75 68 60 56 54 51 47
78 82 87 90 92 95 97 99 101 103 104 102 100 99 98 97 96 95 94 94 93 92 90 92 93 93 91 92 93 93 92 90 88 87 86 86 87 81 79 81 85 75 73 73 75 74 72 63 55 49 49 46 42 39
67 70 73 75 77 80 84 88 91 94 95 96 96 96 96 96 95 95 95 93 93 92 90 93 93 90 92 93 92 91 92 92 91 89 89 88 86 83 83 85 79 77 77 75 73 67 56 48 45 45 41 37 35 31
57 58 60 61 63 66 69 73 76 78 80 81 83 83 84 85 84 85 85 85 84 83 82 84 84 83 83 84 85 86 88 89 87 87 87 86 84 82 83 77 75 74 70 68 59 49 43 42 39 35 30 27 23 22
47 47 48 50 51 54 56 59 61 62 63 64 63 64 65 66 68 69 69 68 67 66 65 66 64 63 62 61 61 61 62 62 64 65 67 68 67 68 67 62 60 59 53 46 40 34 34 32 30 29 23 22 20 18
35 35 37 40 41 42 44 46 46 47 47 46 48 51 53 56 55 55 54 53 52 52 52 48 47 46 45 43 42 42 42 42 43 46 48 46 45 46 47 45 41 39 37 32 31 33 33 29 26 24 20 20 18 18
25 25 27 29 31 33 35 36 37 38 40 43 44 45 41 41 41 42 41 41 41 39 34 34 34 34 32 31 31 31 30 29 30 31 30 30 31 33 32 30 29 27 26 30 31 30 29 28 24 21 21 22 19 19
20 20 22 24 25 27 29 31 33 35 36 34 32 33 33 33 33 32 32 32 29 27 26 25 25 24 25 26 25 23 22 22 23 24 23 24 25 23 22 21 22 24 26 29 26 27 26 26 25 20 18 21 20 26
16 17 18 19 21 23 24 26 27 28 29 30 30 28 28 28 28 27 24 23 22 22 21 22 22 23 23 22 22 21 23 24 22 21 20 19 18 19 18 18 22 21 24 24 26 28 27 25 26 24 19 19 27 29
17 18 19 21 22 23 24 24 24 23 24 24 26 26 24 21 19 21 22 22 22 24 25 26 26 25 24 22 21 22 20 16 12 11 12 16 20 19 17 19 19 20 26 30 29 28 27 25 27 24 22 23 30 31
23 24 25 26 27 28 29 30 31 30 30 27 25 26 28 29 29 29 29 29 29 28 27 27 26 24 24 21 18 17 14 13 17 20 18 19 21 14 16 17 18 20 24 29 34 32 31 28 29 31 29 26 31 38
29 29 30 31 32 34 34 33 33 31 30 29 29 30 30 31 32 32 31 30 29 29 28 26 26 23 22 21 18 16 14 17 19 16 12 17 13 12 13 14 15 19 21 26 28 31 35 41 40 41 39 38 33 36
32 34 34 34 34 35 35 37 37 35 33 32 33 33 33 33 33 32 31 30 29 26 25 25 25 23 23 22 18 16 16 17 18 17 10 10 12 15 16 16 16 17 21 27 29 32 36 36 38 39 39 40 43 42
38 38 39 38 38 36 35 36 37 38 39 39 38 37 36 34 31 28 28 27 26 25 25 25 23 23 22 19 17 18 18 20 12 12 11 12 14 14 17 20 23 26 26 27 30 34 36 39 42 41 40 39 39 42
38 38 38 38 37 35 33 36 39 42 42 41 40 38 36 33 29 27 24 24 25 25 24 22 21 20 20 20 19 14 8 9 9 10 8 10 13 17 22 24 27 29 31 34 36 38 40 40 41 41 42 41 41 41
41 41 39 38 39 35 33 37 41 41 38 35 33 30 28 26 25 27 26 24 22 20 16 19 21 22 22 21 14 5 5 8 5 6 10 14 19 23 26 28 32 35 37 41 43 43 41 41 41 42 42 42 43 45
39 40 40 40 40 40 41 40 36 34 33 32 30 28 27 24 21 16 13 13 20 21 20 18 18 18 16 13 10 10 12 12 14 17 19 22 24 27 30 33 37 39 40 41 40 38 37 37 37 36 34 33 34 37
35 35 36 36 36 35 35 34 33 31 29 28 24 25 21 20 25 24 21 22 21 18 16 15 14 13 11 10 10 11 13 14 18 21 23 25 28 29 30 29 28 29 29 31 32 33 33 33 33 32 32 32 31 32
30 29 28 27 27 27 27 26 24 24 24 20 21 25 31 29 28 25 22 20 19 16 14 11 8 7 6 7 7 9 12 15 18 19 19 17 15 16 16 17 19 21 22 23 25 27 28 28 28 27 26 26 26 28
29 29 28 26 26 27 27 25 26 28 32 34 35 34 31 27 24 22 21 19 17 14 11 7 4 2 2 5 9 12 12 10 8 8 9 10 10 11 13 16 19 20 20 21 21 23 24 25 25 24 21 18 18 18
36 35 35 33 33 32 32 33 35 36 36 35 34 32 27 25 24 22 18 15 12 8 5 3 1 3 4 2 2 1 1 4 5 8 12 14 14 15 14 16 17 20 22 23 21 21 24 25 25 24 22 20 16 13
39 39 39 37 38 40 40 38 36 34 32 31 30 27 24 21 18 15 12 9 7 4 3 4 5 6 7 7 6 3 6 8 10 12 14 15 15 15 16 16 16 20 22 21 20 18 18 22 23 24 23 22 20 19
43 42 40 39 38 36 35 33 31 28 26 24 22 19 16 14 13 11 10 10 12 13 14 15 14 11 9 8 9 11 13 14 15 14 14 13 12 12 12 13 15 18 22 21 18 17 17 18 22 25 26 26 25 25
40 38 35 33 31 30 28 27 25 23 21 19 17 16 16 16 17 16 18 21 20 18 16 14 12 11 12 12 12 12 13 16 18 20 20 19 18 16 15 15 15 18 22 18 15 15 16 19 20 21 22 22 23 23
35 34 31 31 29 27 26 25 26 26 24 23 22 21 21 22 24 25 22 19 18 18 17 17 14 13 13 14 15 15 16 17 20 22 24 25 23 19 17 19 19 19 18 12 11 11 13 16 17 18 20 23 24 24
36 36 36 34 31 30 29 31 31 31 32 33 32 30 28 26 24 22 20 18 16 15 14 14 15 17 17 17 18 18 18 19 20 21 22 23 23 21 19 19 19 19 19 16 11 10 11 14 17 20 21 23 25 27
37 38 39 37 36 35 35 35 35 34 32 31 30 29 27 25 23 21 20 19 18 17 16 15 15 15 16 17 18 19 19 20 22 23 23 23 23 23 21 20 21 21 20 19 15 13 11 12 14 18 20 22 23 25
42 41 40 40 40 38 36 34 33 32 30 29 27 26 24 21 19 17 15 14 13 13 14 15 17 18 19 19 20 20 21 23 24 25 25 25 24 24 25 25 23 21 22 22 20 16 14 16 18 20 23 24 24 25
43 42 40 39 38 35 33 30 28 27 26 24 22 20 18 18 17 16 15 15 15 15 15 16 17 19 20 21 23 24 25 26 27 26 26 25 25 24 23 22 23 23 22 21 22 21 20 19 21 22 23 25 27 29
Wind_Direction
248 246 246 247 247 248 248 248 249 250 250 250 251 251 252 252 253 255 256 257 258 259 261 261 263 264 265 265 267 268 269 270 270 272 274 276 277 278 280 281 281 282 284 285 286 287 289 291 292 291 294 297 297 293
249 249 248 248 249 249 249 250 251 251 251 252 253 253 253 253 254 255 256 257 258 258 259 260 262 263 264 266 268 269 270 271 271 272 272 276 276 277 277 280 281 281 282 283 284 287 289 290 290 293 296 295 294 292
249 249 249 249 249 250 249 249 250 252 253 253 254 253 254 253 253 255 258 258 257 257 259 261 262 263 265 266 268 270 270 271 272 273 274 275 276 276 278 280 282 282 282 283 286 288 289 289 292 294 294 294 289 285
250 250 249 250 250 250 249 249 250 251 252 253 254 254 254 254 255 256 256 257 258 258 259 261 262 263 264 266 267 267 268 270 271 272 272 273 273 275 277 279 283 282 282 287 289 289 291 291 293 293 292 288 285 280
249 250 250 250 250 250 250 251 252 253 253 254 254 255 255 255 255 255 256 257 257 257 258 258 260 261 263 264 265 266 267 269 269 270 270 270 272 274 277 279 278 279 285 289 289 288 292 293 292 288 286 284 279 277
250 250 250 250 250 249 249 250 251 252 252 253 254 254 254 254 255 256 257 257 258 258 258 258 257 258 259 260 260 261 263 264 265 266 267 269 271 274 277 277 276 282 284 285 288 291 293 291 289 286 282 281 279 277
249 248 248 248 247 247 247 248 249 249 250 251 252 252 253 254 255 256 257 258 259 259 260 260 258 257 257 257 257 258 259 261 262 263 265 267 270 272 272 272 279 281 282 285 288 290 285 285 283 279 279 279 276 273
249 249 249 248 247 246 245 245 245 246 247 248 249 251 253 254 255 256 257 257 258 259 258 260 260 260 258 257 258 259 260 261 261 262 263 265 266 267 269 275 276 277 279 282 281 277 282 281 278 274 272 272 269 262
248 248 246 245 244 242 242 241 242 242 244 245 247 249 250 250 250 251 253 255 255 256 256 256 257 258 258 257 257 257 258 258 257 257 257 259 262 265 268 270 272 274 276 273 273 273 268 267 268 269 275 266 263 255
246 243 241 239 238 238 237 237 236 236 237 238 238 240 241 242 245 248 250 251 250 249 250 252 252 251 252 252 251 250 249 249 249 250 254 256 258 259 262 264 265 264 262 263 254 257 261 261 267 274 278 268 250 247
237 234 231 227 226 226 226 224 222 221 220 223 226 230 235 237 238 239 240 241 242 244 245 243 240 239 239 234 234 235 239 240 239 241 242 242 243 248 252 256 256 256 252 246 245 246 248 249 257 268 276 262 239 236
216 214 210 210 212 211 210 208 209 210 213 216 218 219 222 222 224 226 228 229 228 226 225 222 217 213 215 217 217 217 215 216 220 225 226 231 238 241 242 244 245 236 237 241 241 246 250 251 255 257 272 245 230 229
192 190 191 191 190 189 189 191 193 195 198 199 200 203 205 208 210 214 215 209 204 201 193 189 188 191 190 187 191 193 201 209 215 224 225 228 230 230 235 230 227 231 237 236 238 238 241 248 261 271 275 257 236 232
160 161 163 165 167 169 172 172 173 174 178 182 185 186 188 186 184 182 182 181 176 174 173 171 169 170 167 183 188 194 206 201 200 218 223 221 227 228 217 217 227 233 236 234 238 247 257 261 264 267 276 269 241 233
146 149 151 151 152 153 153 156 158 161 161 165 169 169 167 169 169 166 163 162 160 161 160 161 164 168 169 173 180 192 194 183 196 207 212 222 235 228 218 223 230 236 241 243 245 249 254 258 264 268 271 259 245 240
139 140 140 141 141 142 144 146 149 152 154 157 158 158 158 157 154 154 154 155 155 154 155 161 163 165 166 172 175 185 190 198 219 234 227 244 257 245 242 246 257 253 254 252 255 259 261 259 262 264 263 261 255 248
130 130 130 130 133 137 142 144 145 147 148 147 145 146 148 149 149 149 152 152 152 156 160 162 164 166 170 169 176 185 195 209 227 243 243 239 250 260 266 271 274 273 267 264 260 268 272 265 262 266 266 268 267 258
124 126 128 131 135 138 141 141 142 142 140 138 139 141 143 145 145 148 151 154 156 162 167 166 168 168 166 171 186 197 203 229 258 269 258 247 249 264 269 270 277 281 278 270 265 264 263 262 264 267 269 268 265 264
127 129 131 132 131 132 136 138 139 139 139 141 143 144 143 146 150 153 157 164 166 167 166 167 168 169 160 185 193 182 78 210 243 247 265 273 278 279 283 287 288 289 289 287 286 283 280 276 272 270 266 264 263 262
123 122 122 123 121 122 126 128 129 132 136 138 140 145 147 151 156 160 165 167 164 158 154 160 164 169 178 204 212 252 332 357 352 286 274 274 280 285 290 292 291 291 291 292 291 291 290 286 281 276 272 266 262 260
121 123 125 125 127 130 131 131 136 137 141 146 150 146 142 145 146 153 147 156 141 138 155 168 169 181 190 197 220 246 261 287 303 306 298 294 297 300 300 300 301 301 302 303 306 308 305 300 293 284 276 268 261 258
123 125 126 128 129 131 133 135 138 141 146 149 144 136 138 132 122 121 135 143 143 147 150 155 163 176 191 196 209 238 263 276 284 293 299 301 300 299 299 302 305 307 309 312 315 318 319 313 304 296 286 279 270 265
125 127 128 130 133 135 138 144 148 149 149 148 133 132 130 129 133 135 138 136 139 140 136 139 156 178 200 229 257 278 286 290 293 297 298 302 307 316 323 322 321 320 320 323 325 327 329 329 323 315 302 291 281 274
129 131 132 133 136 139 142 141 137 133 130 131 134 134 133 134 132 127 124 121 122 127 133 142 154 172 241 272 283 292 294 301 314 335 345 344 336 328 334 338 337 337 338 342 342 341 343 347 344 343 334 320 303 289
124 124 122 123 123 121 121 123 124 123 124 122 121 122 122 123 121 121 124 129 135 138 140 144 170 260 276 315 344 327 42 358 335 321 325 326 331 339 341 340 345 350 351 350 350 352 353 0 2 4 4 1 354 337
111 112 114 116 116 115 114 112 111 112 114 115 117 120 124 126 126 125 126 127 126 120 119 133 120 102 89 89 84 58 344 344 349 353 345 338 334 332 339 342 348 354 353 355 2 11 13 14 18 19 20 23 22 17
112 113 113 113 113 111 111 111 112 112 114 116 118 119 120 123 126 132 134 121 113 111 105 102 99 89 77 65 48 31 19 8 3 359 355 350 342 338 342 341 347 351 355 2 15 28 30 32 32 33 34 34 36 37
115 115 115 114 112 110 109 109 110 110 108 108 109 113 115 117 116 116 114 108 106 103 101 98 87 70 56 48 41 28 16 8 5 4 2 359 356 352 354 356 352 359 4 5 11 15 21 25 31 32 31 33 35 31
110 109 108 106 105 106 107 106 106 106 107 105 105 108 113 113 108 104 104 103 99 95 91 84 77 62 45 33 23 14 12 11 7 7 4 2 2 359 355 358 360 359 4 3 4 8 16 21 24 26 25 20 17 17
105 105 104 103 103 103 104 105 105 105 105 103 103 103 102 100 100 100 97 91 84 77 70 59 52 46 41 36 32 29 22 16 10 7 6 5 3 3 0 355 352 352 351 352 354 4 13 19 15 11 9 8 4 360
104 104 103 103 101 100 101 102 101 100 99 96 94 93 91 90 88 87 84 80 78 81 78 66 51 41 33 25 18 15 11 9 8 7 7 5 2 360 358 358 357 354 351 351 347 345 347 352 355 354 352 352 353 351
101 101 102 102 99 97 96 94 92 92 91 90 88 85 81 77 73 70 69 66 57 40 25 17 10 5 3 1 358 357 355 355 355 356 356 356 359 357 356 357 355 355 356 353 347 340 335 337 338 339 340 341 343 344
97 96 94 92 91 90 90 90 88 84 80 77 74 73 69 66 62 57 51 46 40 32 22 12 4 356 350 347 345 344 344 344 344 345 345 345 346 349 351 350 352 353 352 352 351 348 343 337 332 334 334 334 336 338
Height
10484 10493 10502 10511 10519 10527 10537 10544 10552 10559 10567 10575 10580 10586 10592 10600 10607 10613 10615 10623 10631 10641 10645 10646 10645 10646 10649 10654 10659 10663 10664 10665 10667 10672 10676 10677 10674 10672 10674 10672 10672 10672 10669 10666 10661 10658 10656 10653 10648 10643 10642 10640 10641 10637
10453 10461 10470 10478 10486 10496 10505 10513 10521 10528 10536 10544 10551 10558 10564 10571 10579 10586 10588 10595 10605 10615 10622 10619 10624 10613 10623 10632 10637 10637 10637 10635 10645 10649 10654 10655 10655 10652 10649 10652 10651 10651 10647 10643 10638 10635 10633 10630 10621 10620 10620 10618 10617 10614
10419 10428 10437 10447 10455 10464 10474 10482 10490 10498 10506 10513 10521 10527 10533 10540 10549 10557 10560 10569 10576 10586 10593 10597 10589 10594 10601 10603 10610 10615 10607 10610 10622 10625 10625 10627 10627 10626 10629 10631 10629 10626 10621 10620 10621 10610 10611 10602 10601 10598 10599 10597 10593 10592
10386 10396 10405 10415 10425 10435 10445 10452 10461 10469 10478 10486 10492 10497 10504 10510 10520 10528 10533 10542 10550 10556 10566 10565 10562 10568 10575 10581 10584 10585 10581 10591 10595 10599 10602 10602 10599 10600 10607 10610 10609 10596 10598 10602 10601 10592 10590 10583 10582 10579 10576 10573 10573 10573
10353 10363 10372 10382 10392 10403 10413 10422 10432 10441 10449 10457 10464 10471 10479 10485 10492 10500 10507 10514 10520 10527 10540 10537 10539 10540 10553 10559 10557 10560 10563 10564 10571 10578 10579 10577 10576 10578 10589 10590 10582 10574 10587 10586 10580 10572 10571 10564 10563 10558 10555 10554 10555 10557
10326 10333 10341 10350 10360 10371 10381 10391 10401 10410 10418 10427 10436 10444 10452 10460 10468 10476 10483 10487 10492 10499 10510 10510 10513 10521 10532 10531 10534 10538 10540 10544 10548 10552 10554 10556 10555 10565 10571 10564 10554 10567 10568 10564 10560 10556 10553 10547 10544 10541 10538 10539 10541 10543
10301 10307 10314 10323 10332 10342 10352 10361 10371 10380 10389 10398 10408 10417 10426 10434 10443 10451 10456 10462 10467 10472 10481 10480 10485 10498 10502 10505 10509 10513 10516 10520 10526 10531 10533 10537 10540 10547 10545 10538 10548 10550 10547 10546 10543 10540 10534 10533 10530 10528 10528 10528 10529 10531
10281 10288 10295 10302 10310 10319 10328 10336 10345 10355 10364 10374 10384 10393 10403 10412 10420 10425 10430 10434 10440 10448 10453 10456 10460 10467 10474 10480 10486 10491 10493 10498 10504 10509 10512 10517 10521 10524 10523 10530 10530 10528 10530 10528 10526 10523 10521 10519 10519 10519 10518 10519 10520 10521
10266 10272 10278 10285 10292 10300 10308 10316 10325 10336 10346 10356 10367 10376 10384 10391 10395 10400 10408 10414 10420 10426 10431 10434 10440 10447 10453 10459 10465 10469 10473 10477 10482 10487 10491 10496 10503 10506 10507 10510 10512 10513 10514 10513 10512 10510 10509 10509 10510 10511 10512 10511 10512 10514
10253 10259 10264 10271 10278 10285 10293 10302 10312 10322 10333 10344 10352 10359 10365 10369 10378 10387 10393 10399 10403 10408 10412 10421 10426 10432 10438 10445 10449 10454 10457 10461 10467 10471 10477 10483 10487 10490 10493 10496 10498 10500 10499 10500 10499 10499 10501 10503 10505 10505 10506 10506 10507 10509
10244 10249 10254 10260 10268 10275 10282 10290 10300 10311 10319 10328 10337 10344 10354 10360 10367 10374 10380 10385 10390 10397 10406 10410 10415 10421 10427 10433 10438 10443 10448 10453 10458 10462 10468 10472 10476 10479 10483 10486 10487 10488 10489 10489 10492 10493 10494 10496 10499 10499 10501 10501 10502 10504
10238 10243 10248 10255 10261 10268 10275 10283 10292 10302 10311 10322 10331 10338 10345 10352 10359 10366 10372 10378 10386 10392 10397 10403 10408 10415 10421 10427 10431 10437 10442 10446 10451 10456 10461 10465 10468 10473 10475 10477 10479 10480 10482 10484 10487 10488 10490 10492 10494 10497 10498 10497 10498 10500
10235 10241 10246 10252 10259 10266 10274 10282 10291 10299 10308 10316 10325 10333 10341 10348 10355 10362 10368 10375 10381 10387 10394 10400 10406 10412 10418 10423 10428 10434 10438 10442 10448 10452 10456 10461 10464 10465 10468 10471 10473 10476 10478 10480 10482 10483 10484 10485 10487 10490 10492 10493 10494 10495
10235 10241 10246 10252 10259 10266 10274 10283 10292 10301 10308 10316 10324 10332 10340 10348 10356 10362 10368 10374 10380 10386 10392 10398 10404 10411 10417 10421 10428 10432 10436 10443 10447 10450 10453 10456 10458 10462 10466 10468 10471 10473 10473 10474 10476 10478 10480 10481 10482 10485 10486 10486 10487 10488
10237 10242 10248 10254 10262 10269 10276 10284 10293 10301 10308 10317 10325 10332 10340 10346 10353 10360 10366 10373 10380 10387 10394 10401 10407 10411 10417 10423 10428 10432 10436 10441 10443 10446 10450 10452 10455 10460 10464 10467 10468 10469 10470 10471 10473 10475 10476 10475 10475 10475 10478 10481 10480 10480
10243 10248 10254 10260 10266 10274 10281 10290 10298 10306 10314 10322 10329 10336 10343 10350 10356 10363 10370 10377 10384 10391 10397 10403 10408 10413 10418 10423 10427 10431 10436 10439 10441 10444 10450 10452 10456 10459 10461 10462 10464 10466 10467 10467 10468 10468 10468 10467 10466 10466 10466 10469 10472 10472
10252 10257 10263 10270 10276 10283 10290 10297 10305 10313 10321 10329 10336 10343 10351 10356 10363 10369 10376 10382 10388 10395 10400 10404 10408 10413 10417 10423 10429 10433 10436 10439 10441 10443 10449 10451 10453 10454 10456 10457 10458 10458 10459 10460 10460 10458 10456 10455 10454 10454 10454 10454 10455 10459
10263 10269 10273 10279 10286 10292 10299 10306 10314 10322 10329 10336 10343 10350 10357 10364 10370 10376 10381 10386 10390 10395 10400 10406 10411 10417 10421 10426 10428 10432 10436 10437 10442 10444 10446 10447 10450 10451 10451 10451 10451 10451 10450 10449 10449 10447 10446 10444 10443 10441 10440 10440 10440 10441
10276 10281 10286 10291 10298 10305 10312 10318 10324 10328 10337 10343 10350 10356 10363 10369 10374 10380 10385 10389 10393 10398 10404 10409 10414 10419 10423 10425 10427 10431 10437 10440 10441 10442 10443 10444 10446 10446 10445 10444 10443 10441 10440 10438 10436 10433 10431 10429 10427 10427 10426 10426 10427 10425
10289 10295 10301 10307 10313 10321 10328 10332 10335 10341 10348 10354 10360 10365 10371 10375 10379 10384 10388 10392 10398 10404 10408 10413 10417 10421 10424 10426 10430 10434 10436 10439 10440 10441 10441 10441 10441 10440 10439 10438 10435 10433 10429 10425 10420 10417 10415 10412 10410 10407 10407 10407 10408 10407
10304 10308 10313 10318 10324 10330 10334 10339 10344 10351 10356 10360 10365 10371 10377 10382 10387 10391 10394 10400 10405 10409 10413 10416 10421 10425 10428 10432 10435 10436 10437 10437 10437 10437 10438 10436 10435 10434 10431 10428 10424 10420 10416 10411 10407 10402 10397 10392 10388 10386 10386 10386 10388 10389
10316 10322 10326 10330 10335 10340 10344 10349 10353 10358 10362 10367 10373 10380 10384 10388 10392 10395 10400 10405 10409 10413 10417 10420 10424 10428 10431 10433 10435 10436 10438 10438 10437 10435 10433 10431 10430 10427 10424 10421 10417 10413 10409 10404 10398 10392 10386 10380 10375 10371 10369 10369 10370 10372
10328 10333 10337 10341 10345 10350 10355 10358 10362 10365 10370 10375 10381 10386 10390 10393 10398 10403 10408 10412 10415 10418 10422 10425 10427 10429 10431 10433 10434 10435 10435 10434 10433 10432 10430 10427 10425 10422 10419 10416 10413 10409 10405 10400 10394 10388 10382 10375 10368 10362 10359 10357 10356 10357
10336 10339 10343 10348 10352 10356 10360 10365 10370 10373 10377 10382 10387 10392 10397 10402 10407 10411 10414 10417 10421 10424 10426 10428 10429 10431 10432 10432 10433 10434 10432 10431 10429 10427 10426 10424 10423 10420 10417 10414 10410 10406 10401 10396 10390 10384 10378 10372 10366 10360 10354 10350 10348 10348
10346 10349 10352 10357 10362 10366 10372 10376 10380 10383 10387 10392 10396 10402 10406 10410 10414 10417 10420 10423 10425 10427 10428 10429 10430 10430 10431 10431 10432 10431 10431 10431 10430 10428 10425 10423 10420 10417 10415 10412 10407 10402 10397 10392 10387 10382 10376 10371 10365 10359 10353 10348 10346 10344
10361 10364 10367 10372 10376 10379 10383 10387 10391 10395 10399 10402 10405 10409 10412 10416 10419 10422 10424 10426 10427 10429 10430 10431 10432 10432 10433 10434 10434 10434 10432 10431 10429 10426 10423 10420 10417 10414 10412 10408 10404 10401 10396 10391 10386 10381 10376 10371 10366 10360 10355 10351 10347 10343
10375 10380 10383 10387 10390 10393 10395 10398 10402 10405 10409 10412 10415 10418 10420 10423 10424 10426 10427 10429 10431 10432 10433 10434 10436 10436 10436 10436 10435 10433 10431 10429 10427 10424 10422 10419 10416 10413 10409 10406 10403 10399 10393 10387 10383 10380 10377 10373 10368 10363 10358 10354 10350 10347
10388 10392 10396 10399 10401 10404 10406 10409 10411 10414 10416 10418 10421 10423 10425 10427 10428 10430 10432 10434 10436 10437 10438 10439 10439 10438 10437 10437 10436 10434 10432 10429 10425 10422 10418 10415 10412 10409 10406 10403 10400 10396 10391 10386 10383 10380 10377 10373 10369 10366 10362 10358 10354 10350
10402 10405 10408 10410 10412 10414 10417 10419 10420 10421 10423 10426 10428 10431 10433 10435 10436 10437 10439 10441 10442 10442 10442 10442 10442 10441 10439 10437 10435 10434 10431 10428 10425 10421 10417 10413 10410 10406 10403 10400 10396 10392 10390 10387 10384 10380 10376 10373 10370 10366 10363 10359 10354 10351
10414 10417 10419 10422 10424 10425 10427 10429 10431 10433 10434 10435 10437 10440 10442 10443 10444 10445 10445 10446 10446 10446 10446 10445 10444 10443 10441 10440 10438 10435 10432 10430 10426 10423 10419 10414 10410 10406 10403 10399 10395 10391 10388 10385 10382 10379 10376 10372 10368 10364 10361 10358 10353 10349
10427 10429 10430 10433 10435 10437 10439 10441 10442 10443 10444 10446 10447 10448 10449 10450 10451 10451 10452 10452 10452 10452 10451 10450 10448 10447 10445 10442 10440 10437 10434 10431 10427 10423 10419 10414 10410 10405 10402 10398 10394 10390 10386 10382 10379 10376 10374 10371 10368 10364 10361 10357 10353 10348
10441 10444 10444 10445 10446 10448 10451 10452 10453 10454 10455 10455 10456 10456 10456 10457 10457 10457 10457 10457 10456 10454 10452 10450 10448 10446 10443 10441 10438 10435 10432 10429 10425 10421 10416 10412 10408 10404 10399 10395 10392 10388 10385 10381 10377 10374 10371 10369 10365 10362 10358 10354 10350 10345
10455 10457 10458 10458 10459 10460 10461 10463 10464 10463 10463 10463 10463 10463 10463 10463 10462 10461 10460 10459 10458 10456 10454 10452 10449 10446 10443 10440 10436 10432 10428 10424 10420 10417 10413 10409 10405 10401 10398 10394 10390 10386 10383 10380 10376 10372 10369 10366 10362 10358 10354 10350 10346 10341